Home > Weather > Biarritz > Past weeks

Flag for France Past Weather in Biarritz, Aquitaine, France — Yesterday and Last 2 Weeks

Now
66 °F

Clear.


Feels Like: 66 °F
Forecast: 62 / 71 °F
Wind: 3 mph from Northwest

Location: Biarritz Airport

Current Time: Jun 30, 2016 at 11:22:01 PM

Latest Report: Jun 30, 2016 at 11:00 PM


Visibility: 10 mi

Pressure: 30.12 "Hg

Humidity: 78%

Dew Point: 59 °F

Location of BiarritzLocation

Past Weather in Biarritz — Graph

°F

Biarritz Temperature Yesterday

Maximum temperature yesterday: 68 °F (at 11:00 AM)
Minimum temperature yesterday: 63 °F (at 5:30 AM)
Average temperature yesterday: 66 °F

High & Low Weather Summary for the Past Weeks

 TemperatureHumidityPressure
High97 °F (Jun 22, 2:30 PM)100% (Jun 24, 4:30 AM)30.42 "Hg (Jun 24, 4:30 AM)
Low52 °F (Jun 16, 4:00 AM)26% (Jun 22, 1:30 PM)29.65 "Hg (Jun 15, 10:00 PM)
Average65 °F76%30.13 "Hg
* Reported Jun 15 10:00 PM — Jun 30 10:00 PM, Biarritz, Weather by CustomWeather, © 2016

Note: Actual official high and low records may vary slightly from our data, if they occured in-between our weather recording intervals... More about our weather records

Advertising

Biarritz Weather History for the Previous 24 Hours

Scroll right to see more
 ConditionsComfort  
Time TempWeatherWind HumidityBarometerVisibility
10:00 PM
Thu, Jun 30
66 °FSunny.3 mph78%30.09 "Hg10 mi
9:30 PM68 °FSunny.6 mph73%30.09 "Hg10 mi
9:00 PM68 °FPassing clouds.7 mph73%30.09 "HgN/A
8:30 PM68 °FPassing clouds.8 mph73%30.09 "HgN/A
8:00 PM70 °FPassing clouds.8 mph73%30.09 "HgN/A
7:30 PM70 °FSunny.9 mph69%30.09 "Hg10 mi
7:00 PM72 °FPassing clouds.9 mph69%30.07 "HgN/A
6:30 PM70 °FPassing clouds.10 mph69%30.07 "HgN/A
6:00 PM72 °FPassing clouds.10 mph69%30.07 "HgN/A
5:30 PM72 °FPassing clouds.12 mph69%30.09 "HgN/A
5:00 PM72 °FPassing clouds.10 mph65%30.09 "HgN/A
4:30 PM72 °FPassing clouds.9 mph65%30.09 "HgN/A
4:00 PM72 °FPassing clouds.10 mph69%30.09 "HgN/A
3:30 PM72 °FPassing clouds.9 mph69%30.09 "HgN/A
3:00 PM72 °FPassing clouds.9 mph69%30.09 "HgN/A
2:30 PM72 °FPassing clouds.7 mph69%30.09 "HgN/A
2:00 PM72 °FPassing clouds.8 mph65%30.09 "HgN/A
1:30 PM72 °FPassing clouds.9 mph65%30.09 "HgN/A
1:00 PM70 °FPassing clouds.9 mph69%30.09 "HgN/A
12:30 PM70 °FPassing clouds.8 mph69%30.09 "HgN/A
12:00 PM70 °FScattered clouds.6 mph69%30.09 "HgN/A
11:30 AM70 °FPartly sunny.6 mph69%30.09 "HgN/A
11:00 AM70 °FBroken clouds.3 mph73%30.09 "HgN/A
10:30 AM68 °FPassing clouds.5 mph73%30.09 "HgN/A
10:00 AM68 °FMore clouds than sun.5 mph73%30.09 "HgN/A
9:30 AM68 °FScattered clouds.2 mph73%30.09 "HgN/A
9:00 AM66 °FPassing clouds.1 mph78%30.07 "HgN/A
8:30 AM63 °FSunny.1 mph83%30.07 "Hg10 mi
8:00 AM61 °FPartly sunny.5 mph88%30.07 "HgN/A
7:30 AM61 °FPassing clouds.3 mph88%30.07 "HgN/A
7:00 AM59 °FClear.3 mph94%30.07 "Hg10 mi
6:30 AM59 °FClear.3 mph94%30.07 "Hg10 mi
6:00 AM59 °FClear.3 mph88%30.04 "Hg10 mi
5:30 AM61 °FClear.3 mph88%30.04 "Hg10 mi
5:00 AM61 °FClear.2 mph88%30.04 "Hg10 mi
4:30 AM61 °FClear.3 mph88%30.04 "Hg10 mi
4:00 AM61 °FClear.2 mph88%30.07 "Hg10 mi
3:30 AM61 °FClear.3 mph94%30.07 "Hg10 mi
3:00 AM61 °FClear.2 mph88%30.07 "Hg10 mi
2:30 AM63 °FClear.2 mph88%30.07 "Hg10 mi
2:00 AM63 °FClear.2 mph83%30.07 "Hg10 mi
1:30 AM63 °FClear.2 mph88%30.07 "Hg10 mi
1:00 AM63 °FClear.2 mph88%30.07 "Hg10 mi
12:30 AM63 °FClear.3 mph88%30.09 "Hg10 mi
12:00 AM64 °FPassing clouds.3 mph78%30.09 "HgN/A
11:30 PM
Wed, Jun 29
64 °FOvercast.2 mph83%30.09 "HgN/A
11:00 PM66 °FOvercast.2 mph78%30.09 "HgN/A
Weather by CustomWeather, © 2016

See weather overviewHow to use our weather pages